[[{"header":{"parameterUnit":"m.s-1","parameterCategory":1,"la1":30.2991,"la2":30.254,"lo1":-89.0895,"lo2":-89.0444,"dy":0.0017,"dx":0.0017,"nx":28,"ny":28,"refTime":"2023-10-23T09:00:00:Z","depth":0,"parameterNumber":2,"parameterNumberName":"U-component_of_WINDS"},"data":[0,0,0,0,0,0,0,0,0,0,0,0,0,0,0,0,0,0,0,0,0,0,0,0,0,0,0,0,0,0,0,0,0,0,0,0,0,0,0,0,0,0,0,0,0,0,0,0,0,0,0,0,0,0,0,0,0,0,-3.5007,-3.5009,0,-3.5166,-3.5168,-3.517,-3.5169,-3.5167,-3.5165,-3.5163,-3.5327,-3.5333,-3.5339,0,0,0,0,0,0,0,0,0,0,0,0,0,-3.4704,-3.4709,-3.5007,-3.5009,-3.5011,-3.5166,-3.5168,-3.517,-3.5169,-3.5167,-3.5164,-3.5162,-3.5325,-3.5332,-3.534,0,0,0,0,0,0,0,0,0,0,0,0,0,-3.4846,-3.4711,-3.5006,-3.5029,-3.5033,-3.5165,-3.5168,-3.5171,-3.517,-3.5167,-3.5164,-3.5161,-3.5322,-3.5332,-3.5341,-3.5462,0,0,-3.537,-3.5374,0,0,0,0,0,0,0,0,-3.4838,-3.4858,-3.5024,-3.5028,-3.5032,-3.5144,-3.5121,-3.5269,-3.5171,-3.5118,-3.5163,-3.5159,-3.5269,-3.5282,-3.5319,-3.547,-3.5477,-3.5371,-3.5376,-3.5381,-3.5383,0,0,0,0,0,0,0,-3.4829,-3.4851,-3.507,-3.5026,-3.5031,-3.5032,-3.5049,-3.5149,-3.5209,-3.5122,-3.5122,-3.5141,-3.527,-3.531,-3.5323,-3.5479,-3.537,-3.5379,-3.5385,-3.5388,-3.5738,-3.5742,0,0,0,0,0,0,-3.4814,-3.4843,-3.5065,-3.5075,-3.4925,-3.504,-3.5059,-3.5112,-3.5208,-3.5219,-3.5144,-3.5141,-3.5295,-3.5312,-3.5329,-3.5477,-3.538,-3.5389,-3.5395,-3.5735,-3.5739,-3.5743,0,0,0,0,0,0,-3.4807,-3.4834,-3.5058,-3.4959,-3.4987,-3.5048,-3.5108,-3.5116,-3.5156,-3.5224,-3.5235,-3.5173,-3.5294,-3.5316,-3.5429,-3.5483,-3.5394,-3.5402,-3.5731,-3.5736,-3.5741,-3.5774,0,0,0,0,0,0,-3.4799,-3.4831,-3.4877,-3.496,-3.4993,-3.5155,-3.5111,-3.5122,-3.5172,-3.517,-3.5255,-3.5266,-3.5293,-3.5415,-3.5439,-3.5494,-3.541,-3.5726,-3.5733,-3.5739,-3.5769,-3.578,-3.579,0,0,0,0,0,-3.4788,-3.488,-3.488,-3.4906,-3.5051,-3.5158,-3.5177,-3.5206,-3.5176,-3.5224,-3.5268,-3.5263,-3.5474,-3.5427,-3.5453,-3.5512,-3.5723,-3.5731,-3.5739,-3.5764,-3.5778,-3.579,0,0,0,0,0,0,-3.4802,-3.4891,-3.4892,-3.5014,-3.5078,-3.5158,-3.5218,-3.522,-3.5295,-3.5289,-3.5323,-3.5342,-3.5455,-3.5496,-3.5442,-3.5635,-3.5595,-3.5608,-3.5604,-3.5618,-3.5629,-3.5616,-3.5417,0,0,0,0,0,-3.482,-3.4899,-3.4973,-3.5073,-3.5106,-3.5157,-3.5204,-3.5221,-3.529,-3.5317,-3.5369,-3.5437,-3.5518,-3.5571,-3.5649,-3.5775,-3.5794,-3.5829,-3.584,-3.5848,-3.5859,-3.5929,-3.5946,-3.577,-3.577,-3.577,0,0,-3.4857,-3.4915,-3.4963,-3.5078,-3.513,-3.5211,-3.5179,-3.5267,-3.5327,-3.5331,-3.544,-3.5482,-3.5559,-3.5679,-3.5735,-3.5716,-3.5913,-3.5859,-3.5865,-3.5871,-3.5939,-3.5956,-3.5971,-3.5775,-3.5774,-3.5773,0,0,-3.4964,-3.5017,-3.5106,-3.516,-3.5239,-3.5273,-3.5294,-3.5374,-3.5402,-3.5513,-3.5517,-3.5591,-3.573,-3.5785,-3.5831,-3.5962,-3.5961,-3.5987,-3.6042,-3.611,-3.6124,-3.6136,-3.6182,-3.6198,-3.5998,-3.5999,-3.5999,0,-3.5,-3.5122,-3.5152,-3.524,-3.529,-3.5298,-3.5389,-3.5439,-3.5541,-3.5576,-3.5554,-3.5729,-3.5782,-3.5915,-3.5947,-3.5985,-3.6011,-3.5976,-3.6119,-3.6132,-3.6144,-3.6188,-3.6206,-3.6001,-3.6001,-3.6001,-3.6,0,-3.5161,-3.5246,-3.5309,-3.5407,-3.5465,-3.5554,-3.5598,-3.5654,-3.5666,-3.5702,-3.5816,-3.588,-3.5972,-3.6005,-3.6018,-3.6141,-3.6127,-3.6112,-3.6071,-3.6163,-3.6205,-3.6222,-3.6005,-3.6004,-3.6003,-3.6002,0,0,-3.528,-3.5395,-3.5417,-3.5462,-3.5551,-3.5618,-3.5708,-3.5798,-3.5844,-3.5915,-3.5991,-3.611,-3.6097,-3.615,-3.617,-3.6229,-3.6329,-3.6207,-3.621,-3.6227,-3.6467,-3.6477,-3.6496,-3.6329,-3.6333,-3.6335,-3.646,0,-3.5397,-3.5556,-3.5587,-3.5725,-3.5804,-3.5813,-3.5892,-3.5956,-3.5993,-3.6066,-3.6107,-3.619,-3.6167,-3.6199,-3.6258,-3.6304,-3.6377,-3.6296,-3.64,-3.6404,-3.6378,-3.6518,-3.6528,-3.6642,-3.6477,-3.648,-3.6482,0,-3.5553,-3.5627,-3.5773,-3.5853,-3.5887,-3.5957,-3.6042,-3.6112,-3.6186,-3.6208,-3.6268,-3.6282,-3.6377,-3.6333,-3.6465,-3.6408,-3.6454,-3.6483,-3.6488,-3.6497,-3.6447,-3.653,-3.668,-3.6696,-3.6509,-3.6506,-3.6505,0,-3.5624,-3.5761,-3.5866,-3.5904,-3.6,-3.6049,-3.6091,-3.6161,-3.6214,-3.6289,-3.6323,-3.6409,-3.6455,-3.6521,-3.6558,-3.6523,-3.6687,-3.6646,-3.6708,-3.6707,-3.674,-3.6737,-3.6898,-3.6772,-3.6772,-3.6772,-3.6771,0,-3.5749,-3.5838,-3.5899,-3.5963,-3.6063,-3.6099,-3.6198,-3.624,-3.6302,-3.6376,-3.639,-3.6459,-3.6504,-3.658,-3.661,-3.6714,-3.6735,-3.6756,-3.6762,-3.6754,-3.6751,-3.6782,-3.6774,-3.6776,-3.6775,-3.6774,-3.6774,0,-3.5844,-3.5888,-3.6003,-3.6085,-3.6108,-3.6178,-3.6249,-3.6312,-3.635,-3.6443,-3.6467,-3.6526,-3.6616,-3.666,-3.6772,-3.6792,-3.6909,-3.6912,-3.6884,-3.6886,-3.6945,-3.6938,-3.713,-3.7157,-3.7015,-3.7016,-3.7017,0,-3.592,-3.5988,-3.6078,-3.6128,-3.6171,-3.6252,-3.6306,-3.6344,-3.64,-3.6489,-3.6542,-3.6633,-3.6707,-3.685,-3.6904,-3.699,-3.6993,-3.7055,-3.7006,-3.6995,-3.6993,-3.6987,-3.6994,-3.7062,-3.7064,-3.7065,-3.7066,0,-3.605,-3.6069,-3.6145,-3.623,-3.6294,-3.6362,-3.643,-3.6471,-3.652,-3.6582,-3.6674,-3.6732,-3.6846,-3.6936,-3.7026,-3.707,-3.7077,-3.7081,-3.71,-3.709,-3.7071,-3.7081,-3.6906,-3.7076,-3.7075,-3.7074,-3.7074,-3.7073,-3.6137,-3.6198,-3.6271,-3.6356,-3.6411,-3.6475,-3.6538,-3.6585,-3.6662,-3.6757,-3.6776,-3.6874,-3.6947,-3.7068,-3.7116,-3.7193,-3.718,-3.7207,-3.7213,-3.7219,-3.7221,-3.706,-3.721,-3.721,-3.721,-3.721,-3.7209,0,-3.6266,-3.6314,-3.6392,-3.6486,-3.6554,-3.6555,-3.663,-3.6686,-3.6772,-3.6839,-3.6912,-3.7018,-3.7106,-3.7167,-3.7257,-3.7307,-3.7312,-3.7329,-3.7324,-3.7335,-3.7229,-3.7203,-3.7323,-3.7323,-3.7323,-3.7323,-3.7323,-3.7323,-3.6341,-3.6445,-3.6473,-3.6605,-3.6653,-3.6748,-3.6791,-3.685,-3.6904,-3.7021,-3.7094,-3.7134,-3.7199,-3.7294,-3.7375,-3.739,-3.7422,-3.7439,-3.7454,-3.7354,-3.7342,-3.733,-3.7306,-3.7446,-3.7446,-3.7553,-3.7554,-3.7555]},{"header":{"parameterUnit":"m.s-1","parameterCategory":1,"la1":30.2991,"la2":30.254,"lo1":-89.0895,"lo2":-89.0444,"dy":0.0017,"dx":0.0017,"nx":28,"ny":28,"refTime":"2023-10-23T09:00:00:Z","depth":0,"parameterNumber":3,"parameterNumberName":"V-component_of_WINDS"},"data":[0,0,0,0,0,0,0,0,0,0,0,0,0,0,0,0,0,0,0,0,0,0,0,0,0,0,0,0,0,0,0,0,0,0,0,0,0,0,0,0,0,0,0,0,0,0,0,0,0,0,0,0,0,0,0,0,0,0,1.488,1.4881,0,1.4967,1.4968,1.4969,1.4967,1.4966,1.4965,1.4964,1.5054,1.5057,1.5061,0,0,0,0,0,0,0,0,0,0,0,0,0,1.4714,1.4717,1.488,1.4881,1.4882,1.4967,1.4968,1.4969,1.4967,1.4966,1.4964,1.4963,1.5053,1.5057,1.5061,0,0,0,0,0,0,0,0,0,0,0,0,0,1.4792,1.4718,1.488,1.4891,1.4893,1.4967,1.4968,1.497,1.4968,1.4966,1.4964,1.4962,1.5052,1.5057,1.5062,1.513,0,0,1.5078,1.508,0,0,0,0,0,0,0,0,1.4788,1.4798,1.4888,1.4891,1.4893,1.4954,1.4943,1.5023,1.4968,1.4939,1.4964,1.4961,1.5022,1.503,1.505,1.5134,1.5138,1.5078,1.5082,1.5084,1.5085,0,0,0,0,0,0,0,1.4782,1.4795,1.4914,1.489,1.4892,1.4893,1.4902,1.4958,1.499,1.4942,1.4942,1.4952,1.5023,1.5045,1.5052,1.5139,1.5078,1.5083,1.5086,1.5088,1.5286,1.5288,0,0,0,0,0,0,1.4774,1.479,1.4912,1.4917,1.4835,1.4897,1.4908,1.4936,1.4989,1.4995,1.4953,1.4952,1.5037,1.5046,1.5056,1.514,1.5084,1.5089,1.5092,1.5284,1.5287,1.5289,0,0,0,0,0,0,1.4771,1.4785,1.4908,1.4854,1.4869,1.4902,1.4934,1.4939,1.4961,1.4998,1.5004,1.497,1.5036,1.5048,1.5112,1.5143,1.5091,1.5096,1.5282,1.5285,1.5288,1.5309,0,0,0,0,0,0,1.4766,1.4784,1.4809,1.4854,1.4872,1.4962,1.4936,1.4942,1.497,1.4968,1.5015,1.5021,1.5036,1.5104,1.5117,1.515,1.51,1.5279,1.5283,1.5287,1.5306,1.5313,1.5319,0,0,0,0,0,1.476,1.4812,1.4811,1.4825,1.4905,1.4964,1.4974,1.499,1.4972,1.4999,1.5023,1.502,1.5138,1.5111,1.5125,1.516,1.5277,1.5282,1.5286,1.5303,1.5311,1.5318,0,0,0,0,0,0,1.4769,1.4817,1.4817,1.4884,1.492,1.4963,1.4997,1.4998,1.5039,1.5036,1.5054,1.5064,1.5128,1.515,1.5119,1.523,1.5205,1.5213,1.5213,1.5221,1.5227,1.5221,1.5104,0,0,0,0,0,1.4779,1.4823,1.4863,1.4918,1.4936,1.4964,1.499,1.4999,1.5037,1.5052,1.5081,1.5118,1.5164,1.5194,1.5238,1.5309,1.532,1.534,1.5347,1.5352,1.5358,1.54,1.541,1.5304,1.5304,1.5304,0,0,1.48,1.4832,1.4858,1.4921,1.495,1.4996,1.4976,1.5025,1.506,1.506,1.5122,1.5145,1.5188,1.5256,1.5288,1.5276,1.539,1.5358,1.5361,1.5366,1.5406,1.5416,1.5425,1.5308,1.5307,1.5306,0,0,1.4861,1.4889,1.4939,1.4969,1.5013,1.5031,1.5043,1.5087,1.5103,1.5165,1.5167,1.5209,1.5286,1.5318,1.5344,1.542,1.5419,1.5434,1.5467,1.5507,1.5515,1.5523,1.5551,1.5561,1.544,1.544,1.544,0,1.4881,1.495,1.4965,1.5015,1.5043,1.5046,1.5098,1.5126,1.5182,1.5202,1.5189,1.5288,1.5317,1.5394,1.5413,1.5433,1.5449,1.5428,1.5513,1.5521,1.5528,1.5555,1.5566,1.5442,1.5442,1.5442,1.5441,0,1.4973,1.5021,1.5057,1.5111,1.5144,1.5194,1.5219,1.525,1.5257,1.5277,1.5342,1.5377,1.5429,1.5448,1.5455,1.5527,1.5519,1.5509,1.5485,1.5539,1.5565,1.5576,1.5444,1.5444,1.5443,1.5443,0,0,1.5041,1.5106,1.5119,1.5144,1.5194,1.5232,1.5283,1.5335,1.5362,1.5401,1.5446,1.5513,1.5505,1.5534,1.5545,1.558,1.564,1.5567,1.5568,1.558,1.5724,1.5731,1.5743,1.564,1.5642,1.5643,1.572,0,1.5109,1.52,1.5216,1.5296,1.5342,1.5346,1.5391,1.5427,1.5448,1.549,1.5513,1.5561,1.5546,1.5565,1.5599,1.5625,1.5669,1.562,1.5683,1.5685,1.5672,1.5756,1.5764,1.5835,1.5731,1.5732,1.5734,0,1.5199,1.5241,1.5326,1.5372,1.5392,1.5432,1.5481,1.5521,1.5563,1.5576,1.561,1.5617,1.5673,1.5646,1.5723,1.5689,1.5716,1.5733,1.5736,1.5743,1.5713,1.5766,1.5857,1.5868,1.575,1.5748,1.5747,0,1.5242,1.532,1.5381,1.5403,1.5458,1.5486,1.5511,1.5551,1.5581,1.5625,1.5645,1.5694,1.5721,1.576,1.5781,1.5759,1.5857,1.5832,1.5871,1.587,1.5891,1.589,1.5989,1.5907,1.5907,1.5907,1.5907,0,1.5316,1.5367,1.5402,1.5439,1.5498,1.5518,1.5576,1.56,1.5636,1.5679,1.5686,1.5727,1.5751,1.5796,1.5813,1.5875,1.5887,1.59,1.5904,1.59,1.5899,1.5918,1.5914,1.591,1.5909,1.5909,1.5908,0,1.5373,1.5398,1.5465,1.5512,1.5525,1.5567,1.5608,1.5645,1.5666,1.5722,1.5736,1.5769,1.5823,1.5847,1.5913,1.5924,1.5996,1.5996,1.5982,1.5983,1.6021,1.6018,1.6137,1.6154,1.606,1.6061,1.6062,0,1.5419,1.5459,1.5511,1.554,1.5566,1.5613,1.5645,1.5666,1.5699,1.5751,1.5783,1.5836,1.588,1.5966,1.5996,1.6047,1.6049,1.6088,1.6057,1.6052,1.6052,1.6049,1.6054,1.6093,1.6094,1.6095,1.6096,0,1.5497,1.5508,1.5553,1.5604,1.5641,1.5682,1.5721,1.5746,1.5773,1.581,1.5865,1.5899,1.5967,1.6021,1.6074,1.61,1.6104,1.6105,1.6117,1.6114,1.6104,1.6111,1.5998,1.6102,1.6102,1.6101,1.6101,1.61,1.5551,1.5588,1.5631,1.5682,1.5714,1.5752,1.579,1.5817,1.5863,1.592,1.593,1.5989,1.6032,1.6104,1.6132,1.6179,1.617,1.6187,1.6192,1.6196,1.6199,1.6096,1.6189,1.6189,1.6189,1.6189,1.6188,0,1.5632,1.566,1.5706,1.5762,1.5803,1.5802,1.5847,1.5881,1.5933,1.5973,1.6016,1.6081,1.6133,1.6169,1.6223,1.6254,1.6257,1.6268,1.6266,1.6272,1.6203,1.6188,1.6265,1.6265,1.6265,1.6265,1.6265,1.6264,1.5678,1.5741,1.5758,1.5838,1.5866,1.5923,1.5949,1.5985,1.6017,1.6088,1.6133,1.6156,1.6195,1.6252,1.6301,1.631,1.633,1.6341,1.6351,1.6285,1.6277,1.6269,1.6255,1.6345,1.6345,1.6417,1.6417,1.6418]}]]